Regional Weather Roundup
Issued by NWS

Home | Current Version | Previous Version | Text Only | Print | Product List | Glossary Off
Versions: 1 2 3 4 5 6 7 8 9 10 11 12 13 14 15 16 17 18 19 20 21 22 23 24 25 26 27 28 29 30 31 32 33 34 35 36 37 38 39 40 41 42 43 44 45 46 47 48 49 50

000
ASUS43 KTOP 030459
RWRKS

WEATHER ROUNDUP FOR KANSAS
NATIONAL WEATHER SERVICE GOODLAND KS
1200 AM CDT MON AUG 03 2015

NOTE:  "FAIR" INDICATES FEW OR NO CLOUDS BELOW 12,000 FEET WITH NO
SIGNIFICANT WEATHER AND/OR OBSTRUCTIONS TO VISIBILITY.

KSZ001>006-013>018-027>032-041>047-030600-
NORTHWEST KANSAS

CITY           SKY/WX    TMP DP  RH WIND       PRES   REMARKS
GOODLAND       CLEAR     71  54  54 S12       30.01F
HAYS           CLOUDY    81  64  57 E3        29.92F
HILL CITY      PTCLDY    77  63  61 SW8       29.92F
RUSSELL        CLOUDY    80  69  69 S10       29.90R
$$

KSZ061>065-074>080-084>089-030600-
SOUTHWEST KANSAS

CITY           SKY/WX    TMP DP  RH WIND       PRES   REMARKS
DODGE CITY     MOCLDY    74  66  76 SE9       29.98R
ELKHART          N/A     73  67  81 S8          N/A
GARDEN CITY    MOCLDY    74  66  76 SE7       29.98R
GREAT BEND     PTCLDY    77  66  69 S7        29.92R
LIBERAL        MOCLDY    75  63  64 S3        29.97R
PRATT          PTCLDY    77  68  73 CALM      29.95S
$$

KSZ066>073-081>083-090>101-030600-
SOUTHEAST KANSAS

CITY           SKY/WX    TMP DP  RH WIND       PRES   REMARKS
CHANUTE        CLEAR     71  65  81 S6        29.92S
COFFEYVILLE    CLEAR     72  66  81 S3        29.92S
HUTCHINSON     PTCLDY    78  69  73 CALM      29.92R
MEDICINE LODGE   N/A     78  70  76 SE6       29.92S
NEWTON         MOCLDY    73  64  73 SE6       29.95R
PARSONS        CLEAR     69  67  93 MISG      29.93S
WICHITA INTL   PTCLDY    75  68  78 S8        29.91S
WICHITA JABRA  CLEAR     76  67  73 S8        29.92S
WINFIELD       CLEAR     74  68  81 S5        29.93S
$$

KSZ007>012-019>026-033>040-048>060-102>105-030600-
NORTHEAST KANSAS

CITY           SKY/WX    TMP DP  RH WIND       PRES   REMARKS
CONCORDIA      PTCLDY    79  69  71 S10       29.88R
EMPORIA        MOCLDY    74  69  85 S10       29.90F
LAWRENCE       CLEAR     79  69  71 SW7       29.87R
MANHATTAN      PTCLDY    77  70  79 SW8       29.87R
OLATHE IND     CLEAR     79  65  62 SW9       29.90R
OLATHE EXE     CLEAR     79  65  62 SW8       29.89R
SALINA         MOCLDY    80  70  71 S9        29.89R
TOPEKA BILLARD CLEAR     81  70  69 SW6       29.87S
TOPEKA FORBES  CLEAR     79  69  71 SW7       29.88S
$$


USA.gov is the U.S. government's official web portal to all federal, state and local government web resources and services.